JST479 YSSY-YCFS

Flight info

Callsign JST479
Flight time 0h 51m
Altitude 33000
Route OLSEM Y193 BANDA J70 CFS
Aircraft A20N/M-SDE2E3FGHIRWXY/LB1

Departure

Time 2026-05-05 09:44
Airport Sydney Kingsford Smith International Airport (YSSY)

Arrival

Time 2026-05-05 10:35
Airport Coffs Harbour Airport (YCFS)
Time Latitude Longitude Altitude Speed Heading
2026-05-05 09:11 -33.93523 151.17911 36 ft 0 kts 99°
2026-05-05 09:30 -33.93521 151.17900 30 ft 2 kts 102°
2026-05-05 09:30 -33.93518 151.17881 30 ft 2 kts 106°
2026-05-05 09:30 -33.93512 151.17862 30 ft 2 kts 119°
2026-05-05 09:31 -33.93502 151.17847 30 ft 2 kts 165°
2026-05-05 09:31 -33.93488 151.17846 30 ft 1 kts 187°
2026-05-05 09:31 -33.93486 151.17846 30 ft 0 kts 188°
2026-05-05 09:34 -33.93487 151.17846 30 ft 0 kts 188°
2026-05-05 09:35 -33.93533 151.17836 30 ft 13 kts 190°
2026-05-05 09:35 -33.93766 151.17786 26 ft 13 kts 187°
2026-05-05 09:35 -33.93797 151.17781 22 ft 0 kts 188°
2026-05-05 09:36 -33.93812 151.17779 21 ft 9 kts 188°
2026-05-05 09:36 -33.93929 151.17786 21 ft 20 kts 166°
2026-05-05 09:36 -33.94071 151.17828 25 ft 22 kts 166°
2026-05-05 09:36 -33.94217 151.17870 27 ft 21 kts 160°
2026-05-05 09:37 -33.94363 151.17898 26 ft 22 kts 166°
2026-05-05 09:37 -33.94508 151.17881 24 ft 17 kts 193°
2026-05-05 09:37 -33.94612 151.17905 27 ft 15 kts 168°
2026-05-05 09:37 -33.94722 151.17935 24 ft 17 kts 168°
2026-05-05 09:38 -33.94852 151.17969 21 ft 21 kts 168°
2026-05-05 09:38 -33.95003 151.18006 28 ft 23 kts 171°
2026-05-05 09:38 -33.95102 151.18081 27 ft 18 kts 103°
2026-05-05 09:38 -33.95079 151.18239 24 ft 21 kts 78°
2026-05-05 09:39 -33.95050 151.18404 28 ft 15 kts 77°
2026-05-05 09:39 -33.95047 151.18417 29 ft 0 kts 78°
2026-05-05 09:40 -33.95045 151.18432 28 ft 7 kts 78°
2026-05-05 09:40 -33.95024 151.18546 26 ft 19 kts 78°
2026-05-05 09:40 -33.94998 151.18696 24 ft 12 kts 79°
2026-05-05 09:40 -33.94995 151.18716 24 ft 0 kts 78°
2026-05-05 09:42 -33.94993 151.18725 14 ft 6 kts 78°
2026-05-05 09:43 -33.94987 151.18821 24 ft 12 kts 115°
2026-05-05 09:43 -33.95084 151.18865 26 ft 29 kts 168°
2026-05-05 09:43 -33.95524 151.18979 24 ft 97 kts 168°
2026-05-05 09:43 -33.96351 151.19192 55 ft 144 kts 168°
2026-05-05 09:44 -33.97290 151.19633 618 ft 146 kts 143°
2026-05-05 09:44 -33.97932 151.20587 1139 ft 153 kts 130°
2026-05-05 09:44 -33.98601 151.21590 1730 ft 154 kts 133°
2026-05-05 09:44 -33.99322 151.22579 2347 ft 163 kts 135°
2026-05-05 09:45 -34.00124 151.23644 2923 ft 179 kts 135°
2026-05-05 09:45 -34.01031 151.24776 3463 ft 198 kts 140°
2026-05-05 09:45 -34.02170 151.25878 3959 ft 221 kts 143°
2026-05-05 09:45 -34.03428 151.27094 4539 ft 243 kts 143°
2026-05-05 09:46 -34.04797 151.28431 5049 ft 262 kts 142°
2026-05-05 09:46 -34.06230 151.29839 5890 ft 270 kts 143°
2026-05-05 09:46 -34.07712 151.31295 6719 ft 279 kts 143°
2026-05-05 09:46 -34.09213 151.32769 7607 ft 283 kts 143°
2026-05-05 09:47 -34.10715 151.34378 8516 ft 289 kts 131°
2026-05-05 09:47 -34.11648 151.36545 9400 ft 297 kts 105°
2026-05-05 09:47 -34.11750 151.39048 10232 ft 304 kts 79°
2026-05-05 09:47 -34.10983 151.41385 11029 ft 307 kts 54°
2026-05-05 09:48 -34.09581 151.43390 11588 ft 322 kts 44°
2026-05-05 09:48 -34.07927 151.45278 12216 ft 331 kts 39°
2026-05-05 09:48 -34.06021 151.46835 13042 ft 333 kts 25°
2026-05-05 09:48 -34.03854 151.47818 13833 ft 335 kts 12°
2026-05-05 09:49 -34.01544 151.48508 14263 ft 352 kts 12°
2026-05-05 09:49 -33.99106 151.49275 14593 ft 369 kts 13°
2026-05-05 09:49 -33.96617 151.50084 15322 ft 371 kts 13°
2026-05-05 09:49 -33.94112 151.50907 16082 ft 374 kts 13°
2026-05-05 09:50 -33.91593 151.51737 16822 ft 377 kts 13°
2026-05-05 09:50 -33.89048 151.52574 17545 ft 380 kts 13°
2026-05-05 09:50 -33.86486 151.53415 18261 ft 383 kts 13°
2026-05-05 09:50 -33.83904 151.54261 18911 ft 386 kts 13°
2026-05-05 09:51 -33.81305 151.55111 19528 ft 389 kts 13°
2026-05-05 09:51 -33.78686 151.55968 20146 ft 392 kts 13°
2026-05-05 09:51 -33.76042 151.56832 20744 ft 395 kts 12°
2026-05-05 09:51 -33.73377 151.57703 21352 ft 398 kts 12°
2026-05-05 09:52 -33.70695 151.58579 21939 ft 401 kts 12°
2026-05-05 09:52 -33.68028 151.59450 22527 ft 404 kts 12°
2026-05-05 09:52 -33.65350 151.60560 23098 ft 411 kts 19°
2026-05-05 09:52 -33.62774 151.62093 23654 ft 417 kts 27°
2026-05-05 09:53 -33.60314 151.63993 24146 ft 422 kts 30°
2026-05-05 09:53 -33.57857 151.65946 24650 ft 424 kts 29°
2026-05-05 09:53 -33.55387 151.67898 25123 ft 426 kts 28°
2026-05-05 09:53 -33.52901 151.69855 25604 ft 428 kts 28°
2026-05-05 09:54 -33.50338 151.71659 26066 ft 426 kts 21°
2026-05-05 09:54 -33.47628 151.73073 26528 ft 423 kts 14°
2026-05-05 09:54 -33.44825 151.74091 26997 ft 420 kts
2026-05-05 09:54 -33.41990 151.74992 27466 ft 422 kts
2026-05-05 09:55 -33.39150 151.75907 27923 ft 423 kts
2026-05-05 09:55 -33.36297 151.76829 28366 ft 424 kts
2026-05-05 09:55 -33.33442 151.77750 28789 ft 426 kts
2026-05-05 09:55 -33.30612 151.78664 29199 ft 427 kts
2026-05-05 09:56 -33.27740 151.79592 29600 ft 428 kts
2026-05-05 09:56 -33.24857 151.80523 29999 ft 430 kts
2026-05-05 09:56 -33.21967 151.81456 30374 ft 431 kts
2026-05-05 09:56 -33.19068 151.82390 30688 ft 433 kts
2026-05-05 09:57 -33.16146 151.83331 31016 ft 434 kts
2026-05-05 09:57 -33.13226 151.84270 31336 ft 435 kts
2026-05-05 09:57 -33.10302 151.85212 31725 ft 435 kts
2026-05-05 09:57 -33.07384 151.86151 32152 ft 433 kts
2026-05-05 09:58 -33.04479 151.87085 32568 ft 432 kts
2026-05-05 09:58 -33.01581 151.88016 32955 ft 431 kts
2026-05-05 09:58 -32.98687 151.88944 33152 ft 429 kts
2026-05-05 09:58 -32.96785 151.89554 33182 ft 428 kts
2026-05-05 09:59 -32.91040 151.91391 33183 ft 427 kts
2026-05-05 09:59 -32.85300 151.93225 33183 ft 427 kts
2026-05-05 10:00 -32.79554 151.95057 33181 ft 428 kts
2026-05-05 10:00 -32.73809 151.96888 33183 ft 427 kts
2026-05-05 10:01 -32.68064 151.98716 33177 ft 427 kts
2026-05-05 10:01 -32.62318 152.00542 33182 ft 428 kts
2026-05-05 10:02 -32.56566 152.02368 33189 ft 428 kts
2026-05-05 10:02 -32.50856 152.04179 33191 ft 427 kts
2026-05-05 10:03 -32.45115 152.05997 33190 ft 427 kts
2026-05-05 10:03 -32.39382 152.07811 33186 ft 425 kts
2026-05-05 10:04 -32.33668 152.09615 33188 ft 425 kts
2026-05-05 10:04 -32.27952 152.11419 33194 ft 425 kts
2026-05-05 10:05 -32.22243 152.13218 33195 ft 424 kts
2026-05-05 10:05 -32.16531 152.15015 33188 ft 424 kts
2026-05-05 10:06 -32.10876 152.16792 33188 ft 423 kts
2026-05-05 10:06 -32.05183 152.18580 33314 ft 422 kts
2026-05-05 10:07 -32.02353 152.19469 33750 ft 419 kts
2026-05-05 10:07 -31.99534 152.20353 33971 ft 420 kts
2026-05-05 10:07 -31.93897 152.22118 33958 ft 418 kts
2026-05-05 10:08 -31.88246 152.23882 34222 ft 421 kts
2026-05-05 10:08 -31.85418 152.24766 34538 ft 420 kts
2026-05-05 10:08 -31.82599 152.25648 34847 ft 419 kts
2026-05-05 10:09 -31.79784 152.26526 35102 ft 419 kts
2026-05-05 10:09 -31.76964 152.27406 35176 ft 419 kts
2026-05-05 10:09 -31.71341 152.29157 35182 ft 417 kts
2026-05-05 10:10 -31.65764 152.30892 35176 ft 417 kts
2026-05-05 10:10 -31.60157 152.32633 35179 ft 419 kts
2026-05-05 10:11 -31.54527 152.34380 35174 ft 419 kts
2026-05-05 10:11 -31.48869 152.36131 35185 ft 422 kts
2026-05-05 10:12 -31.43169 152.37894 35124 ft 425 kts
2026-05-05 10:12 -31.40311 152.38778 34719 ft 426 kts
2026-05-05 10:12 -31.37438 152.39665 34009 ft 428 kts
2026-05-05 10:13 -31.34532 152.40555 32927 ft 435 kts
2026-05-05 10:13 -31.31595 152.41457 32130 ft 436 kts
2026-05-05 10:13 -31.28665 152.42360 31352 ft 436 kts
2026-05-05 10:13 -31.25749 152.43261 30844 ft 430 kts
2026-05-05 10:14 -31.22867 152.44151 30270 ft 426 kts
2026-05-05 10:14 -31.20010 152.45031 29645 ft 422 kts
2026-05-05 10:14 -31.17194 152.45899 29098 ft 416 kts
2026-05-05 10:14 -31.14412 152.46756 28541 ft 411 kts
2026-05-05 10:15 -31.11665 152.47601 27995 ft 406 kts
2026-05-05 10:15 -31.08947 152.48436 27451 ft 402 kts
2026-05-05 10:15 -31.06253 152.49262 26914 ft 399 kts
2026-05-05 10:15 -31.03580 152.50082 26375 ft 396 kts
2026-05-05 10:16 -31.00928 152.50894 25842 ft 393 kts
2026-05-05 10:16 -30.98292 152.51702 25287 ft 391 kts
2026-05-05 10:16 -30.95697 152.52495 24779 ft 388 kts
2026-05-05 10:16 -30.93088 152.53293 24247 ft 386 kts
2026-05-05 10:17 -30.90491 152.54087 23683 ft 385 kts
2026-05-05 10:17 -30.87918 152.54875 23140 ft 380 kts
2026-05-05 10:17 -30.85373 152.55654 22619 ft 376 kts
2026-05-05 10:17 -30.82859 152.56452 22093 ft 374 kts 13°
2026-05-05 10:18 -30.80476 152.57704 21559 ft 379 kts 25°
2026-05-05 10:18 -30.78349 152.59542 21038 ft 385 kts 37°
2026-05-05 10:18 -30.76529 152.61851 20499 ft 388 kts 43°
2026-05-05 10:18 -30.74767 152.64220 19952 ft 386 kts 43°
2026-05-05 10:19 -30.73006 152.66576 19362 ft 387 kts 43°
2026-05-05 10:19 -30.71238 152.68932 18847 ft 385 kts 43°
2026-05-05 10:19 -30.69470 152.71284 18269 ft 386 kts 43°
2026-05-05 10:19 -30.67707 152.73625 17707 ft 384 kts 44°
2026-05-05 10:20 -30.65948 152.75958 17162 ft 381 kts 44°
2026-05-05 10:20 -30.64208 152.78264 16614 ft 379 kts 44°
2026-05-05 10:20 -30.62478 152.80557 16071 ft 377 kts 45°
2026-05-05 10:20 -30.60753 152.82841 15535 ft 375 kts 45°
2026-05-05 10:21 -30.59074 152.85062 15008 ft 374 kts 46°
2026-05-05 10:21 -30.57363 152.87325 14470 ft 372 kts 46°
2026-05-05 10:21 -30.55654 152.89582 13934 ft 371 kts 46°
2026-05-05 10:21 -30.53956 152.91826 13373 ft 369 kts 46°
2026-05-05 10:22 -30.52275 152.94050 12848 ft 365 kts 46°
2026-05-05 10:22 -30.50585 152.96282 12320 ft 362 kts 46°
2026-05-05 10:22 -30.48952 152.98438 11811 ft 359 kts 46°
2026-05-05 10:22 -30.47313 153.00599 11303 ft 356 kts 46°
2026-05-05 10:23 -30.45683 153.02747 10770 ft 353 kts 47°
2026-05-05 10:23 -30.44058 153.04887 10286 ft 350 kts 47°
2026-05-05 10:23 -30.42485 153.06961 10144 ft 336 kts 47°
2026-05-05 10:23 -30.40986 153.08938 9964 ft 316 kts 47°
2026-05-05 10:24 -30.39580 153.10792 9760 ft 298 kts 47°
2026-05-05 10:24 -30.38242 153.12554 9428 ft 285 kts 47°
2026-05-05 10:24 -30.36980 153.14216 9216 ft 270 kts 46°
2026-05-05 10:24 -30.35750 153.15833 8742 ft 266 kts 46°
2026-05-05 10:25 -30.34524 153.17441 8220 ft 265 kts 46°
2026-05-05 10:25 -30.33307 153.19039 7716 ft 264 kts 47°
2026-05-05 10:25 -30.32096 153.20628 7247 ft 262 kts 47°
2026-05-05 10:25 -30.30898 153.22199 6789 ft 259 kts 47°
2026-05-05 10:26 -30.29707 153.23760 6362 ft 256 kts 47°
2026-05-05 10:26 -30.28566 153.25256 6203 ft 240 kts 47°
2026-05-05 10:26 -30.27479 153.26681 5885 ft 234 kts 47°
2026-05-05 10:26 -30.26408 153.28083 5486 ft 231 kts 48°
2026-05-05 10:27 -30.25360 153.29453 5203 ft 222 kts 48°
2026-05-05 10:27 -30.24365 153.30755 4872 ft 217 kts 48°
2026-05-05 10:27 -30.23362 153.32066 4489 ft 218 kts 49°
2026-05-05 10:27 -30.22355 153.33336 4385 ft 213 kts 40°
2026-05-05 10:28 -30.20996 153.34086 4385 ft 222 kts
2026-05-05 10:28 -30.19501 153.33854 4335 ft 215 kts 332°
2026-05-05 10:28 -30.18429 153.32743 4189 ft 206 kts 297°
2026-05-05 10:28 -30.17903 153.31230 4000 ft 198 kts 285°
2026-05-05 10:29 -30.17527 153.29788 3978 ft 179 kts 284°
2026-05-05 10:29 -30.17331 153.28464 3984 ft 158 kts 264°
2026-05-05 10:29 -30.17589 153.27252 3874 ft 154 kts 241°
2026-05-05 10:29 -30.18199 153.26305 3674 ft 143 kts 218°
2026-05-05 10:30 -30.18939 153.25604 3482 ft 133 kts 217°
2026-05-05 10:30 -30.19635 153.24913 3235 ft 132 kts 217°
2026-05-05 10:30 -30.20328 153.24212 3062 ft 134 kts 217°
2026-05-05 10:30 -30.21040 153.23492 2902 ft 136 kts 217°
2026-05-05 10:31 -30.21741 153.22784 2727 ft 133 kts 217°
2026-05-05 10:31 -30.22437 153.22084 2550 ft 132 kts 217°
2026-05-05 10:31 -30.23119 153.21399 2383 ft 131 kts 217°
2026-05-05 10:31 -30.23825 153.20692 2212 ft 133 kts 218°
2026-05-05 10:32 -30.24507 153.20009 2050 ft 131 kts 217°
2026-05-05 10:32 -30.25196 153.19316 1871 ft 131 kts 217°
2026-05-05 10:32 -30.25880 153.18629 1695 ft 130 kts 216°
2026-05-05 10:32 -30.26570 153.17938 1529 ft 129 kts 217°
2026-05-05 10:33 -30.27249 153.17257 1336 ft 131 kts 217°
2026-05-05 10:33 -30.27932 153.16574 1154 ft 128 kts 218°
2026-05-05 10:33 -30.28602 153.15906 1001 ft 129 kts 218°
2026-05-05 10:33 -30.29287 153.15224 842 ft 130 kts 220°
2026-05-05 10:34 -30.29967 153.14546 676 ft 127 kts 220°
2026-05-05 10:34 -30.30636 153.13874 519 ft 127 kts 221°
2026-05-05 10:34 -30.31301 153.13190 390 ft 129 kts 221°
2026-05-05 10:34 -30.31972 153.12504 186 ft 127 kts 221°
2026-05-05 10:35 -30.32631 153.11849 33 ft 120 kts 220°
2026-05-05 10:35 -30.33121 153.11364 26 ft 52 kts 221°
2026-05-05 10:35 -30.33240 153.11246 29 ft 21 kts 220°
2026-05-05 10:35 -30.33302 153.11152 27 ft 2 kts 267°
2026-05-05 10:36 -30.33296 153.11139 28 ft 6 kts 300°
2026-05-05 10:36 -30.33263 153.11090 25 ft 9 kts 311°
2026-05-05 10:36 -30.33209 153.11053 25 ft 9 kts 358°
2026-05-05 10:36 -30.33141 153.11104 27 ft 16 kts 41°
2026-05-05 10:37 -30.33042 153.11203 26 ft 21 kts 41°
2026-05-05 10:37 -30.32927 153.11318 27 ft 23 kts 41°
2026-05-05 10:37 -30.32800 153.11443 26 ft 25 kts 40°
2026-05-05 10:37 -30.32664 153.11578 27 ft 26 kts 40°
2026-05-05 10:38 -30.32528 153.11712 26 ft 24 kts 40°
2026-05-05 10:38 -30.32441 153.11780 26 ft 5 kts 359°
2026-05-05 10:38 -30.32413 153.11751 26 ft 9 kts 313°
2026-05-05 10:38 -30.32366 153.11686 26 ft 8 kts 299°
2026-05-05 10:39 -30.32382 153.11636 26 ft 4 kts 229°
2026-05-05 10:39 -30.32389 153.11622 26 ft 1 kts 255°
2026-05-05 10:39 -30.32384 153.11610 26 ft 4 kts 302°
2026-05-05 10:39 -30.32356 153.11594 26 ft 4 kts 339°
2026-05-05 10:40 -30.32355 153.11594 26 ft 0 kts 338°